Tracking 32523 objects as of 13-Dec-2025
HD Live streaming from Space Station
objects crossing your sky now

AMAZONAS 2

Track AMAZONAS 2 now!
AMAZONAS 2 is classified as:


NORAD ID: 35942
Int'l Code: 2009-054A
Perigee: 35,779.1 km
Apogee: 35,808.6 km
Inclination: 1.3 °
Period: 1,436.1 minutes
Semi major axis: 42164 km
RCS: 8.2771 m2 (large)
Launch date: September 30, 2009
Source: Spain (SPN)
Launch site: FRENCH GUIANA (FRGUI)

Amazonas 2 was built by Astrium based on its Eurostar E3000 satellite bus, for on-orbit delivery in 2009. Amazonas 2 will be operated from at 61° West, providing relay services with 54 Ku band and 10 C band transponders.
Your satellite tracking list
Your tracking list is empty




NASA's NSSDC Master Catalog

Two Line Element Set (TLE):
1 35942U 09054A   25346.26431905 -.00000273  00000-0  00000-0 0  9994
2 35942   1.3316  85.6054 0003498 178.3917 211.5855  1.00271357 59318
Source of the keplerian elements: AFSPC